GW0888 Weather Reports


Display with metric or nautical units.
time (UTC)temp
F
wind
direction
speed
MPH
gust
MPH
rain 1hr
in
rain 24hr
in
rain mn
in
humidity
%
barometer
mb
20260502221533 57 275 5.0 12.0 0.00 0.00 0.00 41 1015.7
20260502220033 58 305 5.0 14.0 0.00 0.00 0.00 40 1015.5
20260502214533 58 285 7.0 15.0 0.00 0.00 0.00 37 1015.4
20260502213038 58 266 3.0 12.0 0.00 0.00 0.00 42 1015.3
20260502211533 58 311 2.0 16.0 0.00 0.00 0.00 40 1015.4
20260502210027 58 288 3.0 12.0 0.00 0.00 0.00 39 1015.4
20260502204524 58 275 6.0 13.0 0.00 0.00 0.00 40 1015.4
20260502203021 58 328 8.0 13.0 0.00 0.00 0.00 40 1015.5
20260502201512 60 290 7.0 15.0 0.00 0.00 0.00 38 1015.6
20260502200009 57 248 6.0 13.0 0.00 0.00 0.00 41 1015.7
20260502194506 57 336 6.0 11.0 0.00 0.00 0.00 42 1015.8
20260502193005 56 33 2.0 7.0 0.00 0.00 0.00 43 1015.8
20260502191502 57 336 2.0 8.0 0.00 0.00 0.00 41 1015.9
20260502190002 58 328 3.0 11.0 0.00 0.00 0.00 40 1016.2
20260502184502 61 310 6.0 13.0 0.00 0.00 0.00 39 1016.1
20260502183101 58 267 6.0 11.0 0.00 0.00 0.00 44 1016.3
20260502181600 57 312 9.0 16.0 0.00 0.00 0.00 41 1016.4
20260502163055 60 236 5.0 15.0 0.00 0.00 0.00 39 1016.7
20260502161545 59 271 2.0 10.0 0.00 0.00 0.00 43 1016.9
20260502151557 56 231 1.0 9.0 0.00 0.00 0.00 48 1017.3
20260502140128 52 291 0.0 4.0 0.00 0.00 0.00 62 1017.4
20260502123040 40 197 0.0 2.0 0.00 0.00 0.00 91 1017.5
20260502121539 40 275 0.0 3.0 0.00 0.00 0.00 91 1017.6
20260502114535 39 255 0.0 2.0 0.00 0.00 0.00 91 1017.4
20260502113005 38 255 0.0 2.0 0.00 0.00 0.00 91 1017.3
20260502111505 38 255 0.0 1.0 0.00 0.00 0.00 91 1017.3
20260502110002 38 261 0.0 2.0 0.00 0.00 0.00 91 1017.0
20260502104501 37 261 0.0 2.0 0.00 0.00 0.00 90 1017.0
20260502103108 37 261 0.0 0.0 0.00 0.00 0.00 90 1016.9
20260502101619 37 261 0.0 1.0 0.00 0.00 0.00 90 1017.1
20260502100104 38 261 0.0 2.0 0.00 0.00 0.00 90 1017.3
20260502090113 38 261 0.0 1.0 0.00 0.00 0.00 89 1017.3
20260502070055 39 300 0.0 0.0 0.00 0.00 0.00 87 1016.9
20260502064548 39 300 0.0 1.0 0.00 0.00 0.00 88 1017.0
20260502063047 40 300 0.0 1.0 0.00 0.00 0.00 87 1017.0
20260502061534 40 300 0.0 1.0 0.00 0.00 0.00 87 1017.2
20260502060029 40 300 0.0 1.0 0.00 0.00 0.00 86 1017.4
20260502054534 41 300 0.0 1.0 0.00 0.00 0.00 85 1017.3
20260502053027 41 300 0.0 2.0 0.00 0.00 0.00 85 1017.5
20260502051524 42 300 0.0 1.0 0.00 0.00 0.00 84 1017.4
20260502050032 42 300 0.0 0.0 0.00 0.00 0.00 83 1017.5
20260502044517 43 300 0.0 0.0 0.00 0.00 0.00 82 1017.4
20260502043016 43 300 0.0 0.0 0.00 0.00 0.00 81 1017.6
20260502041513 44 300 0.0 1.0 0.00 0.00 0.00 80 1017.7
20260502040007 45 300 0.0 1.0 0.00 0.00 0.00 78 1017.7
20260502034511 46 300 0.0 1.0 0.00 0.00 0.00 76 1017.6
20260502033002 47 300 0.0 0.0 0.00 0.00 0.00 73 1017.4
20260502031603 47 300 0.0 0.0 0.00 0.00 0.00 73 1017.3
20260502030057 48 300 0.0 0.0 0.00 0.00 0.00 72 1017.5
20260502024606 49 300 0.0 0.0 0.00 0.00 0.00 69 1017.5
20260502023106 49 300 0.0 0.0 0.00 0.00 0.00 68 1017.7
20260502021546 50 300 0.0 1.0 0.00 0.00 0.00 66 1017.5
20260502020040 50 300 0.0 2.0 0.00 0.00 0.00 65 1017.0
20260502014537 50 269 0.0 2.0 0.00 0.00 0.00 64 1016.6
20260502013034 51 274 0.0 3.0 0.00 0.00 0.00 63 1016.4
20260502011531 51 257 1.0 4.0 0.00 0.00 0.00 63 1016.2
20260502010028 52 342 1.0 5.0 0.00 0.00 0.00 63 1015.9
20260502004522 53 96 1.0 6.0 0.00 0.00 0.00 62 1015.6
20260502003017 54 259 4.0 9.0 0.00 0.00 0.00 60 1015.1
20260502001518 55 229 2.0 13.0 0.00 0.00 0.00 61 1014.9
20260502000007 56 333 3.0 5.0 0.00 0.00 0.00 62 1014.7
20260501234505 56 311 2.0 8.0 0.00 0.00 0.00 59 1014.2
20260501233100 57 282 3.0 10.0 0.00 0.00 0.00 56 1013.7
20260501231604 58 316 5.0 13.0 0.00 0.00 0.00 53 1013.6
20260501230056 58 298 4.0 11.0 0.00 0.00 0.00 53 1013.6
20260501224607 58 313 3.0 10.0 0.00 0.00 0.00 54 1013.5
20260501223050 58 313 5.0 11.0 0.00 0.00 0.00 59 1013.6